Location: Stokes Fall Starparty
(41.2298°N, 74.7506°W)
Time: 03:27:06
(UTC-05:00)

Daily predictions for brighter satellites

Satellite Brightness Start Highest point End
(mag) Time Altitude Azimuth Time Altitude Azimuth Time Altitude Azimuth
SL-16 R/B 4.5 03:23:27 20° ENE 03:23:27 20° ENE 03:25:54 10° NE
CENTAUR R/B 4.2 03:25:34 29° ENE 03:25:34 29° ENE 03:28:58 10° NE
Cosmos 2181 Rocket 3.9 04:27:01 87° WSW 04:27:01 87° WSW 04:33:21 10° S
DELTA 2 R/B (1) 4.5 04:32:33 38° S 04:32:33 38° S 04:36:41 10° SE
Cosmos 2333 Rocket 4.3 04:45:24 13° N 04:45:24 13° N 04:46:13 10° N
Cosmos 2297 3.8 04:42:45 57° SSW 04:42:45 57° SSW 04:47:28 10° S
Cosmos 1536 Rocket 4.1 04:47:32 41° NNE 04:48:50 58° E 04:53:09 10° SSE
ATLAS CENTAUR Rocket 4.2 04:47:53 24° WSW 04:53:00 34° SSW 04:57:43 10° SE
USA 215 3.2 04:46:42 10° NE 04:53:16 89° SE 04:56:46 31° SW
SL-16 R/B 2.4 05:05:26 47° NW 05:05:26 47° NW 05:10:42 10° NNE
Cosmos 1680 Rocket 3.6 05:06:01 51° NW 05:06:01 51° NW 05:10:44 10° N
Tiangong 2 2.3 05:06:52 39° ENE 05:06:52 39° ENE 05:09:00 10° ENE
Okean 1 3.3 05:06:19 56° N 05:07:09 85° E 05:11:11 10° S
SJ-6F 4.2 05:03:42 10° NNE 05:07:47 86° WNW 05:11:51 10° SSW
Okean 1 Rocket 4.3 05:04:09 10° SSE 05:08:18 42° E 05:12:26 10° NNE
Cosmos 921 Rocket 2.9 05:08:05 55° NNW 05:09:03 81° WSW 05:13:33 10° SSE
Meteor 1-25 Rocket 4.2 05:04:40 10° SSW 05:10:28 66° WNW 05:16:16 10° N
Abrixas rocket 4.3 05:11:31 17° S 05:13:16 26° SE 05:16:08 10° E
CENTAUR R/B 3.1 05:12:47 36° NW 05:13:26 36° NW 05:19:49 10° NNE
COSMO-SKYMED 1 2.5 05:09:58 10° SSE 05:14:19 84° ENE 05:17:08 22° N
Cosmos 1812 3.7 05:17:05 33° SSW 05:17:05 33° SSW 05:19:27 10° S
Cosmos 1238 Rocket 3.6 05:17:54 39° NW 05:19:20 51° W 05:24:50 10° SSW
Cosmos 1346 Rocket 2.6 05:23:01 40° NNW 05:24:18 71° W 05:28:12 10° S
Cosmos 2112 Rocket 4.3 05:23:28 34° WSW 05:24:53 42° WNW 05:29:48 10° N
NOAA 6 4.0 05:22:04 10° N 05:27:06 60° WNW 05:32:08 10° SSW
Cosmos 1633 2.8 05:28:26 10° S 05:32:04 70° E 05:35:42 10° NNE
Cosmos 2237 Rocket 4.1 05:38:25 12° NNW 05:38:25 12° NNW 05:39:24 10° NNW
Radarsat Rocket 4.4 05:29:38 10° NNE 05:36:36 72° WNW 05:44:28 10° SSW
Cosmos 2341 Rocket 4.4 05:31:50 10° S 05:38:04 69° E 05:44:18 10° NNE
Cosmos 2074 Rocket 4.2 05:32:26 10° SSW 05:38:26 46° WNW 05:44:26 10° N
Cosmos 1300 Rocket 3.4 05:34:07 10° SSW 05:38:31 69° W 05:42:56 10° N
PSLV R/B 3.4 05:38:42 40° W 05:39:42 65° SSW 05:43:03 10° ESE
Meteor 1-28 Rocket 3.2 05:36:07 10° SSE 05:39:54 87° ENE 05:43:44 10° N
CZ-4 R/B 3.2 05:36:56 10° NNE 05:40:33 33° E 05:44:06 10° SSE
Lacrosse 5 2.1 05:36:46 10° SW 05:41:51 74° SE 05:46:57 10° NE
USA 129 2.1 05:46:46 10° SSE 05:48:44 60° ENE 05:49:37 28° N
Meteor 2-4 Rocket 4.0 05:43:25 10° N 05:48:54 70° E 05:54:31 10° SSE
Lacrosse 4 Rocket 4.0 05:49:01 10° NNE 05:51:16 14° NE 05:53:29 10° E
Cosmos 192 4.2 05:46:49 10° SSW 05:51:42 68° WNW 05:56:36 10° NNE
Cosmos 1536 2.8 05:48:11 10° S 05:52:10 84° E 05:56:12 10° N
CSL-04 Rocket 3.7 05:47:44 10° NNE 05:53:19 81° WNW 05:58:49 10° SSW
Cosmos 2184 Rocket 4.4 05:47:45 10° SW 05:53:21 36° WNW 05:59:02 10° N
Cosmos 44 Rocket 3.4 05:48:31 10° SSW 05:53:43 84° WNW 05:58:52 10° NNE
CSL-04 Debris 4.2 05:49:06 10° NNE 05:54:35 88° ESE 06:00:05 10° SSW
Transit 2A Rocket 4.5 05:53:37 15° NW 05:57:21 72° WSW 06:01:39 10° SSE
Cosmos 1340 4.4 05:54:02 10° N 05:57:32 34° ENE 06:00:59 10° SE
SKYMED 2 4.5 05:58:47 10° SSW 06:02:31 28° W 06:05:46 13° NW
Cosmos 1603 4.0 05:57:24 10° SW 06:02:48 44° WNW 06:08:13 10° NNE
Meteor 2-13 Rocket 4.5 05:58:16 10° SSW 06:04:20 61° W 06:10:27 10° N
Cosmos 2369 Rocket 2.3 05:58:51 10° NNW 06:04:36 88° ENE 06:10:19 10° SSE
Cosmos 2056 Rocket 3.9 06:02:29 11° NW 06:07:11 40° WSW 06:11:55 10° S
SPOT 3 Rocket 4.5 06:02:27 10° NNE 06:07:29 52° E 06:12:29 10° S
SL-24 DEB 4.4 06:03:24 10° S 06:08:06 58° W 06:12:51 10° NNW
Cosmos 2154 Rocket 4.1 06:02:37 10° SSW 06:08:40 53° WNW 06:14:44 10° N
Helios 1B rocket 2.8 06:11:09 10° SSE 06:15:15 67° ENE 06:19:24 10° N
Kosmos-1675 3.9 06:16:40 10° SW 06:19:28 75° NW 06:30:28 10° NE
Ariane Rocket 3.6 06:18:34 10° N 06:23:05 33° WNW 06:27:34 10° SW
IDEFIX/ARIANE 42P 2.7 06:21:48 10° NNE 06:27:01 83° ESE 06:32:14 10° SSW
Meteor 1-29 3.2 06:24:58 10° SSE 06:28:18 72° ENE 06:31:41 10° N
Cosmos 1943 3.2 06:23:25 10° SW 06:28:56 58° WNW 06:34:32 10° NNE
SJ-7 4.4 06:29:08 10° N 06:33:19 84° WNW 06:37:26 10° SSW
YAOGAN 1 2.6 06:29:21 10° NNE 06:33:42 84° WNW 06:38:02 10° SSW
Cosmos 1975 4.1 06:30:50 10° SSE 06:34:44 46° E 06:38:41 10° NNE
USA 215 3.9 06:30:03 10° NE 06:35:50 35° NNW 06:41:35 10° W
AQUARIUS 4.1 06:34:00 10° N 06:38:29 69° WNW 06:42:56 10° SSW
Cosmos 1025 Rocket 3.7 06:36:17 10° NNW 06:40:16 35° W 06:44:14 10° SSW
